CDT,Max TemperatureF,Mean TemperatureF,Min TemperatureF,Max Dew PointF,MeanDew PointF,Min DewpointF,Max Humidity, Mean Humidity, Min Humidity, Max Sea Level PressureIn, Mean Sea Level PressureIn, Min Sea Level PressureIn, Max VisibilityMiles, Mean VisibilityMiles, Min VisibilityMiles, Max Wind SpeedMPH, Mean Wind SpeedMPH, Max Gust SpeedMPH,PrecipitationIn, CloudCover, Events, WindDirDegrees
2012-9-1,74,72,70,68,63,56,87,74,57,30.06,30.01,29.95,10,10,7,18,11,23,0.04,5,Rain,51
2012-9-2,82,76,70,70,68,64,88,76,65,29.94,29.90,29.87,10,9,6,17,10,22,T,5,,56
2012-9-3,90,78,66,70,68,64,94,72,46,29.94,29.90,29.85,10,8,2,10,4,15,0.00,1,,52
2012-9-4,93,79,65,70,66,57,88,69,31,29.93,29.86,29.80,10,9,5,41,5,51,0.20,2,Rain-Thunderstorm,103
2012-9-5,88,75,61,65,61,59,90,70,41,29.94,29.81,29.76,10,9,4,25,6,32,0.05,3,Rain-Thunderstorm,222
2012-9-6,86,75,63,64,56,45,90,58,24,29.93,29.89,29.83,10,10,7,14,3,18,0.00,0,,338
2012-9-7,78,68,57,62,58,53,88,76,55,29.91,29.83,29.76,10,8,2,29,8,38,0.16,4,Rain,341
2012-9-8,73,63,52,54,47,43,89,62,35,29.91,29.87,29.83,10,10,4,20,10,29,0.14,2,Rain,302
2012-9-9,73,62,51,54,49,41,94,71,33,30.16,30.01,29.85,10,10,5,16,8,25,0.00,3,,357
2012-9-10,76,61,46,52,46,42,90,61,33,30.23,30.16,30.09,10,10,9,14,5,18,0.00,0,,173
2012-9-11,84,67,50,54,51,46,86,57,33,30.15,30.10,30.04,10,10,10,23,10,30,0.00,0,,188
2012-9-12,87,72,57,57,54,52,84,56,31,30.15,30.11,30.06,10,10,10,18,9,23,0.00,0,,190
2012-9-13,68,61,53,56,50,46,94,76,50,30.34,30.26,30.14,10,9,2,17,8,22,0.21,7,Rain,6
2012-9-14,75,61,46,51,44,38,93,63,28,30.36,30.31,30.28,10,8,2,15,4,18,0.00,0,,293
2012-9-15,80,63,45,48,44,40,90,57,25,30.31,30.23,30.14,10,10,2,9,2,16,0.00,1,,177
2012-9-16,77,62,47,50,46,43,93,68,30,30.13,30.07,29.97,10,8,0,17,3,22,0.00,0,Fog,214
2012-9-17,79,65,50,61,54,48,89,75,43,29.97,29.84,29.74,10,8,2,21,8,28,0.34,5,Rain-Thunderstorm,288
2012-9-18,62,52,41,49,39,29,83,65,30,30.04,29.90,29.81,10,10,10,22,9,26,0.00,3,,330
2012-9-19,73,56,38,44,39,36,93,52,27,30.09,29.95,29.82,10,10,9,31,14,43,0.00,1,Thunderstorm,191
2012-9-20,72,60,47,47,37,30,80,46,23,29.94,29.89,29.83,10,10,10,18,7,24,0.00,0,,274
2012-9-21,59,52,44,50,45,38,100,80,59,29.94,29.88,29.82,10,9,5,15,5,18,0.15,5,Rain,29
2012-9-22,59,51,43,48,40,33,97,71,46,30.19,30.00,29.82,10,9,5,28,12,36,0.01,3,Rain,288
2012-9-23,61,49,36,39,34,28,89,62,32,30.27,30.23,30.19,10,10,10,15,5,20,0.00,1,,298
2012-9-24,70,51,32,39,34,30,93,55,26,30.23,30.07,29.92,10,10,10,22,10,28,0.00,0,,209
2012-9-25,78,61,44,61,51,39,100,71,43,29.91,29.86,29.81,10,9,0,15,6,22,0.00,1,Fog,200
2012-9-26,70,58,46,57,51,42,100,85,49,30.17,29.98,29.87,10,6,0,15,8,18,0.00,1,Fog,27
2012-9-27,67,53,39,47,44,38,93,72,45,30.22,30.19,30.16,10,10,10,17,8,21,0.00,2,,6
2012-9-28,69,57,45,50,47,44,90,70,49,30.19,30.15,30.12,10,10,10,20,7,25,0.00,2,,14
2012-9-29,80,61,41,49,42,37,96,68,22,30.13,30.06,29.95,10,9,2,18,4,24,0.00,0,,327
2012-9-30,67,55,43,52,44,39,100,73,40,30.00,29.97,29.94,10,9,6,16,7,22,0.00,0,,30